Temp
13 13 14 13 13 14 14 14 14 14 14 15 14 14 14 15 16 17 19 18 18 18 17 17 17 17 17 17 18 18 15 14 16 17 17 17 16 18 18 17 15 15 15 13 12
12 13 13 13 13 13 14 14 14 14 14 14 14 14 15 16 17 19 19 18 18 18 17 17 17 17 18 18 19 17 14 16 17 16 16 16 15 17 17 15 13 12 12 12 12
11 12 12 13 13 13 13 14 14 14 14 14 14 14 15 15 17 19 19 19 18 18 17 17 17 16 17 18 18 17 16 17 17 17 17 16 16 18 16 14 15 12 12 11 12
11 11 11 12 13 13 13 13 13 13 13 13 14 15 15 15 17 19 19 19 19 18 18 17 17 17 17 17 19 18 19 19 18 18 17 16 18 17 17 17 16 14 12 12 12
10 11 11 12 12 13 13 13 13 13 13 13 14 14 15 15 18 18 19 19 19 19 18 18 17 18 17 18 19 17 19 19 18 18 18 18 18 16 15 17 15 13 13 13 13
10 10 11 12 12 13 13 13 13 13 13 13 14 14 14 12 18 18 18 19 19 19 18 18 19 19 19 19 18 20 19 18 18 20 20 18 17 18 15 16 16 15 14 12 14
9 10 10 11 12 12 12 12 12 12 13 13 14 14 14 18 18 18 18 19 19 19 19 19 19 19 20 18 20 21 17 17 17 18 18 19 18 17 16 16 16 17 16 15 15
10 10 10 11 12 12 12 12 12 12 13 13 13 13 15 18 18 18 18 19 19 19 19 19 19 20 20 20 20 20 20 16 17 17 19 18 18 18 17 16 16 17 17 16 16
9 9 10 10 11 12 12 12 13 12 12 12 12 12 16 19 19 20 19 19 19 19 19 19 19 19 20 17 15 16 17 19 17 18 18 18 18 18 18 17 17 17 18 17 16
9 9 9 10 11 12 12 12 13 13 12 12 12 12 18 19 20 20 20 20 19 19 18 19 19 15 15 15 15 18 19 19 19 19 17 18 17 15 18 18 18 17 18 18 16
9 9 9 10 10 11 12 12 13 12 11 15 15 16 18 19 20 20 21 20 19 19 17 18 15 15 16 16 18 19 18 18 18 19 19 17 14 15 16 17 18 18 18 17 17
9 9 9 9 10 11 11 12 12 11 11 14 15 14 17 17 16 20 20 20 19 16 16 15 15 17 18 19 18 17 18 18 18 19 19 15 15 15 15 17 19 19 18 18 17
8 9 9 9 10 11 11 12 11 12 11 14 16 17 18 18 18 20 20 20 18 17 17 16 17 18 19 19 17 17 18 18 19 20 17 17 16 14 15 15 17 18 19 19 19
9 9 9 9 10 11 12 11 13 13 9 13 16 18 18 19 18 20 20 20 19 17 17 17 19 19 19 18 18 16 19 20 20 18 17 17 15 16 16 15 15 16 17 18 18
8 7 9 9 10 11 11 11 12 12 8 16 17 19 20 19 20 21 21 21 18 18 17 17 19 18 18 18 19 18 19 20 20 17 17 17 16 16 16 16 15 16 16 18 19
7 7 8 8 10 12 11 11 11 10 9 16 19 18 18 19 19 21 21 21 20 18 18 17 19 19 18 19 19 20 19 16 15 14 12 15 15 14 16 18 18 17 17 17 17
6 6 7 9 10 11 11 11 9 10 15 17 17 18 17 17 18 18 19 18 16 16 16 18 18 18 19 18 18 19 15 14 14 11 11 15 15 15 17 17 17 17 19 19 18
6 6 7 8 8 10 10 10 10 12 14 18 18 17 17 17 17 18 17 16 17 17 14 16 15 17 17 18 17 16 16 12 15 11 14 14 14 17 18 19 19 20 19 18 16
4 6 6 7 8 9 9 10 10 12 16 17 18 16 16 17 18 17 16 16 17 16 16 15 16 15 16 17 17 16 16 16 11 10 12 13 16 17 17 16 17 16 17 17 17
4 5 6 7 7 7 8 10 12 14 16 18 16 16 15 16 16 16 16 17 17 17 16 15 15 15 16 18 17 16 18 16 12 13 13 15 15 15 18 19 17 14 16 17 17
3 5 6 6 7 6 8 10 12 14 15 16 16 17 17 16 16 16 17 18 17 15 16 14 15 14 16 16 16 16 16 17 14 11 12 11 13 15 17 17 17 15 17 17 16
4 5 6 7 6 7 9 10 12 13 15 14 16 15 16 16 16 16 17 18 19 16 15 14 13 10 14 17 17 16 16 15 10 14 8 8 13 16 16 16 17 18 17 17 17
4 6 7 8 6 6 9 11 11 13 14 15 16 16 18 16 16 16 17 18 18 17 16 15 13 10 13 16 16 17 17 16 13 9 11 9 12 16 16 17 19 18 18 18 17
5 6 6 6 9 8 8 9 10 12 12 14 15 15 17 17 17 16 16 17 17 17 18 17 14 13 11 14 15 17 18 17 14 9 11 9 15 16 15 15 17 19 19 18 18
4 8 8 6 7 9 9 10 9 11 14 15 14 15 15 15 16 17 15 16 16 16 16 14 15 15 15 16 17 17 17 18 16 14 12 14 13 16 17 16 16 19 18 18 17
5 8 8 8 8 7 9 10 11 12 13 14 14 15 15 16 15 15 15 14 15 15 16 14 13 15 15 14 15 16 15 15 15 17 15 15 15 15 16 16 16 17 17 17 17
3 7 9 9 8 7 9 10 11 12 14 14 15 15 15 15 17 18 19 18 15 13 13 12 9 9 12 10 12 10 13 14 16 16 16 15 15 13 12 13 15 17 17 16 15
Height
1548 1547 1546 1544 1544 1542 1541 1539 1536 1533 1530 1527 1523 1519 1516 1514 1511 1507 1506 1506 1503 1502 1503 1505 1507 1509 1511 1512 1514 1516 1522 1526 1519 1514 1511 1507 1507 1504 1506 1507 1511 1512 1516 1522 1526
1546 1544 1543 1542 1541 1540 1538 1537 1534 1531 1528 1525 1521 1517 1515 1512 1508 1505 1506 1503 1502 1502 1503 1505 1507 1509 1511 1511 1512 1514 1523 1516 1510 1508 1507 1508 1510 1509 1510 1510 1513 1516 1520 1525 1527
1543 1542 1541 1540 1538 1538 1536 1534 1532 1529 1526 1523 1519 1516 1514 1512 1508 1505 1504 1502 1501 1502 1504 1505 1508 1509 1510 1509 1509 1511 1514 1510 1509 1504 1504 1505 1507 1509 1509 1514 1512 1514 1520 1524 1528
1541 1540 1539 1537 1536 1535 1534 1532 1530 1527 1524 1521 1517 1515 1513 1512 1511 1505 1504 1502 1501 1501 1504 1506 1508 1509 1509 1507 1506 1509 1503 1505 1506 1503 1502 1504 1508 1508 1508 1508 1512 1516 1519 1522 1530
1538 1537 1536 1535 1534 1533 1532 1530 1528 1525 1521 1519 1516 1514 1513 1511 1506 1504 1503 1502 1502 1502 1504 1507 1507 1507 1507 1503 1502 1503 1499 1499 1503 1504 1502 1501 1506 1511 1509 1513 1516 1519 1520 1525 1526
1535 1534 1533 1532 1531 1531 1529 1528 1526 1523 1519 1517 1515 1513 1513 1512 1505 1504 1504 1503 1502 1503 1505 1507 1506 1506 1504 1502 1502 1495 1496 1499 1502 1499 1502 1503 1507 1507 1516 1513 1515 1519 1524 1525 1527
1531 1531 1530 1529 1528 1528 1527 1525 1523 1521 1518 1515 1513 1512 1511 1505 1504 1503 1504 1503 1503 1504 1506 1507 1507 1506 1503 1500 1498 1497 1501 1504 1502 1500 1502 1503 1508 1513 1513 1515 1515 1519 1524 1525 1527
1527 1527 1527 1526 1525 1525 1524 1522 1521 1518 1516 1514 1512 1512 1505 1503 1501 1500 1503 1504 1504 1505 1506 1506 1505 1503 1502 1501 1496 1496 1495 1517 1505 1506 1501 1505 1513 1510 1515 1513 1516 1519 1523 1525 1526
1522 1523 1524 1523 1523 1522 1521 1519 1518 1516 1515 1513 1512 1511 1503 1501 1500 1499 1501 1501 1503 1504 1504 1505 1505 1503 1501 1504 1510 1504 1513 1506 1507 1506 1501 1507 1511 1508 1511 1514 1515 1518 1521 1525 1528
1518 1519 1520 1520 1519 1519 1518 1517 1515 1513 1513 1511 1511 1513 1500 1499 1498 1498 1499 1500 1502 1504 1506 1505 1504 1505 1506 1511 1526 1511 1506 1502 1503 1500 1502 1505 1509 1507 1510 1512 1513 1516 1517 1520 1525
1513 1514 1517 1517 1516 1516 1517 1517 1516 1513 1510 1505 1505 1500 1497 1498 1496 1495 1497 1499 1502 1504 1507 1504 1510 1514 1507 1505 1502 1501 1507 1509 1502 1493 1499 1503 1509 1506 1508 1511 1511 1513 1515 1519 1521
1508 1511 1512 1514 1514 1514 1515 1515 1513 1515 1508 1500 1498 1497 1495 1498 1499 1493 1496 1499 1500 1505 1505 1510 1513 1503 1500 1499 1504 1509 1510 1505 1495 1487 1494 1506 1509 1507 1509 1507 1505 1508 1513 1517 1520
1504 1505 1509 1510 1511 1512 1513 1514 1513 1513 1511 1491 1489 1490 1491 1495 1494 1491 1494 1495 1498 1503 1504 1509 1503 1499 1501 1502 1508 1507 1504 1501 1499 1489 1493 1502 1516 1517 1512 1510 1508 1507 1507 1510 1511
1498 1501 1504 1507 1513 1510 1511 1510 1507 1511 1515 1493 1484 1484 1487 1491 1491 1488 1490 1494 1496 1501 1501 1502 1496 1498 1500 1504 1504 1512 1491 1493 1492 1501 1514 1502 1530 1514 1509 1509 1508 1504 1505 1507 1509
1492 1497 1500 1504 1505 1507 1510 1509 1509 1511 1535 1479 1479 1478 1480 1486 1484 1484 1487 1490 1494 1495 1498 1503 1497 1501 1502 1500 1494 1498 1490 1493 1492 1504 1505 1506 1517 1509 1502 1506 1504 1501 1498 1499 1503
1487 1491 1497 1498 1500 1505 1507 1508 1510 1521 1523 1477 1471 1474 1478 1481 1481 1482 1484 1487 1488 1492 1494 1496 1494 1493 1495 1492 1492 1491 1491 1498 1504 1511 1538 1518 1521 1518 1506 1492 1489 1491 1494 1497 1501
1480 1487 1490 1495 1498 1502 1505 1508 1517 1517 1481 1474 1472 1471 1474 1479 1481 1481 1483 1487 1495 1505 1506 1496 1494 1489 1491 1495 1490 1490 1506 1527 1530 1545 1544 1516 1520 1510 1490 1485 1482 1482 1488 1491 1496
1474 1481 1485 1491 1496 1500 1503 1506 1509 1490 1480 1466 1464 1469 1476 1476 1478 1480 1483 1488 1487 1491 1505 1508 1515 1495 1490 1496 1502 1502 1504 1533 1530 1548 1528 1513 1518 1497 1478 1477 1476 1480 1486 1487 1491
1469 1475 1477 1485 1492 1496 1501 1497 1489 1482 1468 1468 1464 1473 1476 1473 1474 1480 1483 1485 1481 1485 1502 1508 1506 1495 1491 1490 1497 1503 1507 1500 1527 1535 1536 1520 1499 1483 1479 1478 1477 1482 1485 1488 1490
1462 1468 1469 1480 1488 1493 1496 1479 1476 1467 1464 1463 1470 1465 1476 1473 1476 1478 1479 1473 1477 1477 1480 1496 1507 1497 1492 1489 1488 1497 1494 1511 1521 1532 1535 1517 1510 1501 1483 1479 1479 1483 1485 1487 1490
1461 1463 1460 1474 1484 1489 1476 1472 1469 1462 1468 1467 1464 1463 1463 1468 1468 1476 1474 1468 1467 1475 1479 1490 1499 1505 1496 1491 1492 1494 1498 1498 1506 1523 1530 1538 1518 1487 1483 1480 1479 1476 1478 1483 1486
1450 1453 1454 1465 1477 1473 1463 1467 1468 1462 1468 1468 1461 1460 1459 1459 1464 1468 1470 1465 1461 1466 1480 1482 1495 1518 1497 1480 1480 1487 1492 1497 1528 1515 1530 1534 1515 1480 1479 1476 1477 1477 1477 1480 1483
1436 1446 1451 1455 1458 1458 1459 1461 1466 1460 1461 1462 1458 1451 1447 1453 1463 1460 1461 1460 1459 1463 1473 1478 1495 1518 1507 1495 1487 1486 1483 1486 1496 1512 1516 1534 1515 1476 1477 1477 1475 1475 1476 1477 1479
1430 1434 1442 1446 1438 1445 1452 1454 1458 1454 1460 1459 1455 1451 1451 1450 1450 1459 1460 1460 1461 1456 1464 1469 1484 1495 1512 1496 1486 1485 1479 1482 1491 1519 1512 1514 1493 1481 1477 1476 1472 1472 1472 1473 1476
1416 1412 1415 1420 1427 1431 1441 1445 1453 1451 1449 1451 1452 1451 1454 1455 1453 1453 1457 1463 1462 1461 1467 1471 1483 1481 1483 1480 1479 1481 1481 1477 1485 1488 1502 1491 1491 1476 1470 1467 1466 1469 1471 1472 1474
1402 1399 1406 1410 1423 1428 1429 1431 1440 1442 1441 1442 1447 1441 1445 1447 1447 1455 1452 1462 1461 1463 1463 1467 1484 1481 1483 1484 1482 1481 1480 1480 1479 1476 1481 1481 1481 1470 1471 1469 1468 1469 1472 1473 1475
1396 1395 1398 1405 1411 1422 1411 1419 1425 1436 1433 1435 1439 1440 1441 1438 1437 1438 1439 1446 1450 1459 1468 1474 1486 1496 1494 1492 1488 1502 1483 1476 1473 1471 1472 1482 1476 1472 1474 1474 1474 1473 1474 1475 1478
Wind_Speed
15 15 17 17 18 18 19 20 20 21 22 24 22 20 19 19 16 15 9 7 7 4 8 6 3 6 6 5 6 8 1 2 4 2 3 4 6 8 5 13 9 5 9 26 25
16 16 17 17 16 16 18 19 20 21 22 22 20 18 18 18 16 2 10 8 7 4 2 4 4 6 4 4 2 4 3 5 3 3 1 4 3 3 3 10 11 24 30 30 29
16 17 17 16 15 16 17 18 19 21 21 20 18 16 16 15 8 4 12 9 3 4 6 7 5 1 4 4 4 4 5 4 2 6 9 5 1 2 11 1 10 27 27 32 31
15 17 18 16 15 15 16 18 19 20 19 18 15 14 15 11 2 5 8 7 2 7 9 6 5 4 4 3 5 3 11 11 9 12 9 6 5 2 9 5 21 26 29 33 32
16 16 17 16 15 15 16 17 18 19 17 15 13 13 13 8 5 6 7 4 3 10 10 7 3 2 3 4 4 6 4 16 15 14 8 11 3 6 9 24 29 24 26 27 22
17 16 17 16 14 15 16 17 17 18 15 13 12 12 11 5 2 4 11 1 5 9 6 6 5 13 9 6 4 18 14 11 11 14 7 6 8 5 13 22 20 25 23 27 27
18 17 17 16 14 15 15 16 17 16 13 11 11 12 14 12 3 4 6 2 3 8 6 5 12 9 8 6 13 3 9 5 5 12 4 8 3 7 23 17 18 21 24 29 26
21 17 17 16 15 15 15 15 17 15 12 10 9 12 10 4 9 11 6 3 4 3 6 7 11 9 3 11 11 2 5 5 9 5 6 7 2 3 23 25 21 21 24 30 32
22 17 16 16 16 15 15 15 17 13 12 9 8 8 10 10 12 9 14 9 5 4 5 10 10 4 4 3 5 5 2 4 3 13 2 1 4 5 20 26 23 24 26 26 32
22 19 17 15 15 15 15 15 16 13 13 9 10 8 10 6 9 6 12 5 8 5 10 6 3 2 3 4 1 4 2 3 2 7 7 4 2 5 22 22 16 20 22 27 36
23 20 17 15 15 15 14 11 6 3 6 9 5 11 3 6 7 10 10 12 10 5 3 2 4 3 6 6 5 4 9 6 5 10 5 8 7 10 19 19 21 19 16 30 39
23 21 17 15 14 14 12 8 4 5 11 19 22 28 26 20 9 7 12 12 6 5 1 4 4 6 4 2 4 2 10 8 11 8 5 8 6 9 12 20 29 26 22 27 34
24 20 17 15 13 13 11 10 11 15 6 15 18 22 21 11 10 10 17 15 6 5 6 5 6 5 1 8 5 6 6 4 3 4 7 6 4 4 7 8 17 24 33 33 38
26 23 18 13 11 9 2 8 2 8 2 7 7 11 14 14 6 17 11 9 3 9 4 4 2 2 2 3 4 5 9 3 4 4 1 2 2 7 10 12 11 25 32 33 41
28 25 22 15 9 9 4 7 7 4 3 5 7 6 15 12 2 7 15 16 6 5 6 8 2 3 4 6 3 7 2 3 2 4 2 5 3 6 5 11 14 23 32 42 42
30 26 24 22 20 10 8 3 8 4 7 4 9 8 7 11 8 2 10 12 8 5 0 7 2 5 5 3 4 5 4 7 4 3 3 5 4 5 5 11 16 20 34 40 40
31 28 30 22 21 15 12 5 3 4 5 5 6 7 8 6 5 5 3 4 6 3 3 3 1 3 3 4 7 4 5 3 4 4 5 3 3 8 8 10 8 14 20 36 38
33 30 29 26 19 15 12 2 9 7 8 4 7 10 8 8 7 6 5 6 3 5 1 4 2 3 2 3 1 6 7 5 3 3 3 3 6 6 5 16 21 18 15 23 33
30 33 30 30 23 17 11 11 7 6 5 4 3 8 7 7 7 8 8 8 9 9 6 4 4 5 3 3 5 7 2 4 7 3 2 4 6 7 5 4 6 8 13 20 30
30 33 34 31 26 19 7 17 7 11 5 1 7 7 9 8 7 7 7 6 6 10 10 7 1 2 6 3 6 7 3 2 3 4 3 4 5 4 2 1 3 5 15 23 30
30 18 22 36 26 14 13 11 15 29 11 4 4 3 9 8 10 7 10 7 9 4 10 5 4 4 4 3 6 1 2 1 4 4 4 1 5 5 6 6 8 13 22 27 36
31 9 25 43 12 13 16 12 15 23 16 7 5 9 9 10 8 8 8 8 13 17 11 8 6 4 10 15 4 4 7 6 5 4 0 4 5 4 8 7 11 17 21 28 37
22 14 33 43 12 12 8 20 21 12 6 6 6 7 4 7 6 6 6 2 11 6 7 7 1 2 6 5 3 7 6 4 5 4 6 5 5 4 5 7 12 15 24 32 40
18 9 15 29 34 22 19 15 17 23 21 14 8 6 4 2 1 6 3 0 4 7 16 13 4 7 7 7 3 2 3 4 5 3 4 6 5 6 9 9 12 12 17 31 39
20 10 19 14 20 18 21 15 21 14 17 14 10 15 9 5 2 6 4 1 3 11 3 6 5 4 5 3 2 1 2 2 5 5 6 8 8 10 6 8 18 15 7 9 26
20 8 25 6 25 19 21 23 26 20 10 17 12 11 8 7 7 8 8 5 5 1 4 2 4 1 3 2 2 2 5 5 5 3 5 5 6 4 7 11 13 6 9 13 11
37 24 24 18 18 17 23 24 27 20 18 35 13 15 5 9 11 18 21 22 13 8 3 4 6 4 4 4 4 5 7 6 5 3 4 5 4 5 6 9 10 12 10 9 12
Wind_Direction
303 302 303 299 299 306 311 316 323 326 331 331 331 330 325 318 318 310 326 322 335 263 241 230 225 181 197 267 254 271 282 270 257 236 197 242 205 186 126 110 73 93 132 138 140
310 309 308 302 299 306 311 316 324 328 333 331 329 328 324 321 324 43 355 326 303 265 196 184 146 169 194 244 184 141 131 245 196 185 137 272 301 335 89 97 93 92 123 133 133
308 311 311 306 299 304 312 317 324 328 333 329 327 327 319 325 321 336 355 340 266 168 155 179 177 229 245 233 197 198 212 168 210 186 179 204 284 20 132 144 170 148 140 142 142
302 310 313 307 300 305 313 318 324 328 331 327 324 324 314 320 250 342 343 352 152 155 172 200 232 204 218 231 256 229 247 183 185 176 176 162 138 127 191 173 158 144 138 143 146
294 304 309 309 302 306 311 319 322 326 327 322 321 319 315 305 277 358 358 10 135 152 175 203 287 275 259 261 324 211 200 169 167 190 208 134 158 143 99 131 130 142 145 142 165
283 296 304 307 300 302 307 316 318 321 322 315 316 312 305 292 29 10 16 18 137 167 186 228 313 314 283 270 178 297 164 135 167 198 156 135 124 89 151 146 145 141 156 165 164
268 285 296 302 296 298 304 313 314 316 315 308 311 304 288 237 196 271 357 30 139 179 220 283 322 299 348 316 317 234 104 67 213 202 194 142 103 97 171 171 153 151 156 171 165
264 273 289 296 295 294 300 308 309 310 303 298 301 301 268 185 232 250 237 181 156 231 290 325 335 313 325 313 336 51 80 133 232 178 263 160 217 159 162 165 169 170 164 167 171
256 264 280 293 297 293 296 304 303 304 290 284 286 284 269 215 225 230 237 237 243 251 305 305 316 318 332 47 353 2 171 190 175 216 210 208 145 176 174 166 172 179 172 160 174
251 257 273 286 294 292 297 305 303 298 274 273 256 292 244 222 230 203 224 222 240 254 263 284 327 32 24 71 235 329 7 310 225 201 171 164 193 157 180 175 179 171 172 180 178
245 251 264 280 290 291 299 317 320 323 263 231 270 251 297 318 257 227 202 203 208 168 182 313 61 240 236 214 254 359 326 277 265 251 138 195 161 180 186 191 187 174 170 174 177
238 245 254 272 284 285 298 295 142 17 294 280 268 261 261 269 300 232 179 181 150 205 126 31 248 252 306 342 351 336 252 294 288 222 123 152 180 176 186 199 189 183 183 193 182
231 235 244 263 281 282 291 313 280 266 289 287 245 241 239 239 232 248 193 191 156 183 201 162 225 231 122 283 343 304 244 250 265 62 37 97 53 189 241 284 215 201 195 191 187
221 227 229 245 271 257 357 9 236 191 335 270 198 237 222 224 274 229 232 185 162 196 215 233 240 161 351 294 203 260 249 270 273 71 140 117 199 194 209 227 219 218 205 196 190
214 220 219 224 219 205 114 35 105 138 354 246 175 200 191 176 207 205 220 219 187 189 118 246 199 135 267 236 300 230 172 208 342 76 86 349 84 252 195 189 217 224 220 208 205
208 213 216 216 222 192 184 104 146 59 250 275 153 178 140 189 244 272 190 214 173 136 75 231 186 165 217 303 260 307 40 32 48 74 47 290 126 291 227 222 191 211 215 215 216
202 206 216 218 226 217 228 170 98 197 300 207 175 158 171 178 229 192 211 140 142 95 254 235 210 289 79 332 2 82 63 353 354 16 211 267 144 233 234 254 233 210 197 214 208
199 201 215 219 208 202 214 142 216 222 245 315 163 164 173 177 227 205 185 220 215 112 137 169 29 324 81 111 347 278 152 156 226 204 267 284 223 247 261 262 230 236 175 189 194
198 199 215 214 199 200 184 214 195 222 205 229 129 149 204 203 186 179 191 204 198 169 156 157 222 296 238 135 106 307 246 177 105 358 12 249 284 315 10 358 177 130 146 173 185
198 206 213 203 200 195 206 224 208 237 9 311 187 175 181 205 163 175 197 199 206 194 149 203 21 227 288 235 168 171 193 68 18 137 240 282 296 250 326 268 244 167 176 181 183
198 198 207 203 190 194 211 219 218 255 291 296 227 233 204 181 193 180 211 238 193 111 119 129 121 297 297 200 213 47 248 128 122 140 170 178 275 231 220 217 222 235 223 188 184
197 197 182 193 167 215 220 201 237 255 257 261 286 228 210 188 190 200 201 218 196 146 155 196 144 169 209 223 313 214 228 146 121 229 123 150 264 239 224 208 219 238 223 200 199
194 183 181 190 188 213 210 215 228 240 200 222 249 207 212 171 172 172 169 203 163 131 156 176 183 68 343 321 273 209 195 179 111 88 193 141 259 289 268 264 204 214 214 212 208
186 172 170 190 212 199 192 201 210 238 248 263 277 311 253 174 170 151 137 316 137 144 194 149 136 162 188 206 187 240 228 157 130 113 184 214 242 269 260 240 233 203 207 220 215
201 195 181 191 207 204 191 193 209 228 211 216 255 237 245 173 129 155 114 68 58 135 135 140 168 156 195 196 173 180 305 259 170 193 160 241 207 244 230 239 220 208 165 197 221
201 191 172 207 200 197 189 203 206 213 229 217 242 259 198 175 177 192 139 173 194 132 119 38 190 176 207 73 63 218 263 265 264 206 231 256 255 301 65 75 70 185 156 127 130
217 222 182 208 183 188 202 192 213 205 217 236 215 238 212 216 163 192 171 185 162 143 131 124 135 116 234 6 9 351 233 216 234 222 184 210 233 118 56 61 63 86 109 90 84